Weather in Nesterkovo

Russia / Vladimir Oblast     56°14′28″N   40°40′45″E
temp.,
°C
wind,
m/s
gust,
m/s
humid.,
%
clouds,
%
prec.,
mm/h
press.,
hPa
HPBL,
m
27 february, sat
sat2700:00+1wnw71398100 0.5 996673
03:00+1wnw61297100 1.4 997635
06:00−9nw81392100 0.6 999659
09:00−11n61190100 0.8 1004664
12:00−10n5887100 0.1 1007618
15:00−9nnw5888100 0.1 1009595
18:00−11nnw3494100 0.0 101085
21:00−13nnw3596100 0.1 101288
28 february, sun
sun2800:00−14nnw339783 0.0 101357
03:00−15nw239660 0.1 101428
06:00−15nw239681 0.1 101530
09:00−12nnw239482 0.1 1015168
12:00−9nw238991 0.0 1015358
15:00−7nw249095 0.1 1016422
18:00−7wnw2295100 0.1 101648
21:00−6nne2296100 0.2 101957
1 march, mon
mon100:00−8ene1296100 0.1 102031
03:00−11wsw119699 0.1 102221
06:00−10wsw239699 0.1 102226
09:00−8wsw349687 0.1 1023126
12:00−4wsw359492 0.0 1022306
15:00−2wsw589296 0.1 1020590
18:00−2sw51092100 0.0 1017539
21:000wsw61293100 0.1 1014625
2 march, tue
tue200:00+1w71498100 0.2 1010627
03:00+1w61395100 0.3 1008712
06:00+1nw71398100 0.8 1006766
09:000nw7129399 1.0 1006961
12:00+1nw7128974 0.1 10071032
15:000nw7129284 0.3 10071067
18:00−1nw61296100 0.4 1008619
21:00−2nw6139198 0.6 1009643
3 march, wed
wed300:00−3nw5129493 0.0 1010523
03:00−3nw5129192 0.1 1011478
06:00−6nw5129456 0.0 1012311
09:00−3nnw7119077 0.1 1014806
12:00−2nw61088100 0.1 1014913
15:00−1nw61085100 0.2 1015946
18:00−2nw51187100 0.1 1015719
21:00−3nw41088100 0.1 1016666